Main page
METAR-TAF:

METAR-TAF

Airports :

Centralia Municipal Airport

Centralia, Illinois, United States

latitude: 38-30-53N, longitude: 089-05-32W, elevation: 535 ft

Current weather observation

The report was made 27 minutes ago, at 05:15 UTC
Calm wind
Temperature 77°F
Humidity 79%
Pressure 30.25 in. Hg
Visibility: 10 miles
Clear sky

METAR: KENL 200515Z AUTO 00000KT 10SM CLR 25/21 A3025 RMK AO2 T02450210

Time: 00:42 (05:42 UTC)


TAF: missing

Weather observations and forecasts of more than 4000 airports (METAR and TAF reports).

The available stations are represented by yellow and red dots on the map.

Hover mouse over dot to see the name of the station.

Then click to see weather observations and forecasts.

To change the map : click on the green buttons with a black cross to zoom in, on the green button with a dash to zoom out, or on the green arrows for adjacent maps.


METAR-TAF: